This is the latest recevied weather packets stored in our database for station/object KD8ZLZ-13. If no packets are shown the sender has not sent any weather packets the latest 1 day(s).
| Time | Temp. | Humidity | Pressure | Rain* | Wind** | Luminosity | Snow |
|---|---|---|---|---|---|---|---|
| 1777987383 | 15.56° C | 65% | 1005.1 hPa | 0 mm | 2.24 m/s, 229° | 0 W/m² | - |
| 1777986783 | 15.56° C | 64% | 1004.7 hPa | 0 mm | 2.24 m/s, 235° | 0 W/m² | - |
| 1777986186 | 15.56° C | 65% | 1004.7 hPa | 0 mm | 2.24 m/s, 239° | 0 W/m² | - |
| 1777985583 | 15.56° C | 69% | 1005.1 hPa | 0 mm | 1.79 m/s, 228° | 0 W/m² | - |
| 1777984983 | 15° C | 72% | 1005.4 hPa | 0 mm | 1.79 m/s, 245° | 0 W/m² | - |
| 1777984383 | 15° C | 77% | 1005.1 hPa | 0 mm | 1.79 m/s, 221° | 0 W/m² | - |
| 1777983783 | 14.44° C | 81% | 1005.1 hPa | 0 mm | 1.34 m/s, 216° | 0 W/m² | - |
| 1777983183 | 14.44° C | 83% | 1005.1 hPa | 0 mm | 1.34 m/s, 215° | 0 W/m² | - |
| 1777982583 | 13.89° C | 84% | 1004.7 hPa | 0 mm | 0.89 m/s, 200° | 0 W/m² | - |
| 1777981983 | 13.89° C | 84% | 1004.4 hPa | 0 mm | 1.34 m/s, 208° | 0 W/m² | - |
| 1777981382 | 13.89° C | 84% | 1004.4 hPa | 0 mm | 1.34 m/s, 208° | 0 W/m² | - |
| 1777980783 | 13.89° C | 84% | 1004.4 hPa | 0 mm | 1.34 m/s, 208° | 0 W/m² | - |
| 1777980182 | 13.89° C | 85% | 1003.7 hPa | 0 mm | 1.34 m/s, 217° | 0 W/m² | - |
| 1777979582 | 13.89° C | 84% | 1003.7 hPa | 0 mm | 1.79 m/s, 218° | 0 W/m² | - |
| 1777978982 | 13.89° C | 84% | 1003.7 hPa | 0 mm | 1.34 m/s, 207° | 0 W/m² | - |
| 1777978382 | 13.89° C | 83% | 1003 hPa | 0 mm | 1.34 m/s, 215° | 0 W/m² | - |
| 1777977782 | 13.89° C | 83% | 1003 hPa | 0 mm | 0.89 m/s, 214° | 0 W/m² | - |
| 1777977182 | 13.89° C | 82% | 1003 hPa | 0 mm | 1.79 m/s, 217° | 0 W/m² | - |
| 1777976582 | 14.44° C | 81% | 1003 hPa | 0 mm | 1.79 m/s, 202° | 0 W/m² | - |
| 1777975982 | 14.44° C | 82% | 1002.7 hPa | 0 mm | 1.34 m/s, 213° | 0 W/m² | - |
| 1777975382 | 14.44° C | 81% | 1002.7 hPa | 0 mm | 1.34 m/s, 233° | 0 W/m² | - |
| 1777974782 | 14.44° C | 80% | 1002.7 hPa | 0 mm | 1.34 m/s, 228° | 0 W/m² | - |
| 1777974182 | 14.44° C | 79% | 1002.7 hPa | 0 mm | 2.68 m/s, 227° | 0 W/m² | - |
| 1777973582 | 14.44° C | 80% | 1002.7 hPa | 0 mm | 2.68 m/s, 221° | 0 W/m² | - |
| 1777972982 | 14.44° C | 80% | 1002.7 hPa | 0 mm | 2.68 m/s, 213° | 0 W/m² | - |
* Rain latest hour (hover to see other rain measurements)
** Current wind speed in m/s (hover to see current wind gust speed)